SEGS

Details ICAO SEGS (GPS)
Name Galapagos - Baltra
Region Equador
Timezone Pacific/Galapagos (UTC-6.0)
Plans Departing 40
Arriving 54
Stats Elevation 207 ft / 63 m (AMSL)
Location -0.453757° -90.265914°
Runways 1
Magnetic Variation 3.429° E
Sunrise 2018-05-25 11:56:35 UTC / 2018-05-25 05:56:35 Local
Sunset 2018-05-26 00:02:20 UTC / 2018-05-25 18:02:20 Local
Advertisement - Login to hide

Runways

ID Width Length Bearing (true) Bearing (mag) Surface Threshold Offset Overrun Length
14 115 ft / 35 m 7,904 ft / 2,409 m 144.01° 140.58° Asphalt 0 ft / 0 m 330 ft / 101 m
32 115 ft / 35 m 7,904 ft / 2,409 m 324.01° 320.58° Asphalt 0 ft / 0 m 330 ft / 101 m

Approach Navaids

Runway Type Ident Frequency Range Bearing (true) Bearing (mag) Slope Elevation
14 Localiser ILB 110.90 MHz 18 nm / 33 km 144.01° 140.58° - 207 ft / 63 m (AMSL)
14 Glidescope ILB 110.90 MHz 10 nm / 19 km 144.01° 140.58° 3.00° 207 ft / 63 m (AMSL)

Map

Weather


0- 5 10 15 20 25 30 35+ Temperature / ° C

Clouds and Precipitation
Forecast for 2018-05-25 18:00 UTC. Updated 4 hours ago

Ground ~20,000 ft ~40,000 ft Winds

METAR

SEGS 252000Z 13016KT 9999 BKN020 29/21 Q1011 A2986

TAF

Not found

Frequencies

Tower 122.20 MHz TWR
Warning: Do not use this data for real-world aviation or navigation. No guarantee of current accuracy is given.